FENGYUN 4B (48808 NORAD) Tracking and Keplerian Element Data

This shows tracking and keplerian element data for the satellite.

Feedback or suggestion? Click here.




ElementValue
Catalog48808
NameFENGYUN 4B
Epoch Orbit69
Epoch Day211.2191413
Epoch Year2021
RAAN137.0874
Inclination0.0632
Eccentricity3.49E-05
Argument of Perigee82.1117
Mean Anonmoly291.3577
Mean Motion1.00276309
Decay Rate-3.62E-06
L11 48808U 21047A 21211.21914130 -.00000362 00000-0 00000+0 0 9991
L22 48808 0.0632 137.0874 0000349 82.1117 291.3577 1.00276309 694

Live tracking and technical data element details for FENGYUN 4B (NORAD 48808). FENGYUN 4B can be tracked NOW for your location showing map with azimuth and elevation plus other details from your city location.

Track the satellite on the map from your city or location and see movement details for azimuth, elevation, latitude, longitude, range, height, and movement on the map or in text.







IsCatalogInMostPopularTable: catalog: 48808, numindb: 12
Update: records affected: 1



GetName: 48808 FENGYUN 4B

Hit Count: updated at: Sat, 31 Jul 2021 14:46:57 GMT